Date String (YYYY-MM-DD hh:mm:ss) UTC,Instrument flags,Ambient pressure (hPa),Sample flow (lpm),Bypass flow (lpm),Sample temperature (°C),Ambient temperature (°C),ASC tube jacket temperature (°C),LED temperature (°C),Box temperature (°C),Sample RH (%),Span deviation,Mass concentration (μg/m³),Mass concentration (μg/m³),Mass concentration (μg/m³)
DateTimeUTC,F1_M11,P_M11,Q1_M11,Q2_M11,T1_M11,T2_M11,T3_M11,T4_M11,T5_M11,U1_M11,ZSPAN_M11,X0_M11,X2_M11,X1_M11
2021-08-27 16:00:00,,0826.6,5.00,0.00,29.2,26.7,00.0,38.4,30.9,28.2,0000.3,0008.89,0003.77,0003.15
2021-08-27 16:01:00,,0826.6,4.98,0.00,29.2,27.2,00.0,38.4,31.0,27.6,0000.8,0008.75,0003.72,0003.14
2021-08-27 16:02:00,,0826.6,5.00,0.00,29.3,27.6,00.0,38.4,31.1,27.3,0001.0,0008.45,0003.65,0003.13
2021-08-27 16:03:00,,0826.6,5.00,0.00,29.3,28.0,00.0,38.4,31.2,26.4,0001.5,0008.06,0003.61,0003.13
2021-08-27 16:04:00,,0826.6,5.00,0.00,29.4,27.5,00.0,38.4,31.1,26.0,0001.9,0008.36,0003.58,0003.13
2021-08-27 16:05:00,,0826.5,5.00,0.00,29.3,26.3,00.0,38.4,30.8,26.1,0001.9,0008.31,0003.53,0003.13
2021-08-27 16:06:00,,0826.5,4.99,0.00,29.2,26.1,00.0,38.4,30.7,26.5,0002.0,0008.09,0003.49,0003.13
2021-08-27 16:07:00,,0826.5,5.00,0.00,29.1,26.4,00.0,38.3,30.7,25.8,0002.0,0008.33,0003.43,0003.12
2021-08-27 16:08:00,,0826.5,5.01,0.00,29.1,26.8,00.0,38.3,30.8,24.3,0001.8,0007.84,0003.42,0003.12
2021-08-27 16:09:00,,0826.5,5.00,0.00,29.1,27.3,00.0,38.3,30.9,23.7,0001.7,0007.72,0003.42,0003.12
2021-08-27 16:10:00,,0826.5,4.99,0.00,29.2,27.7,00.0,38.3,31.1,23.6,0002.3,0007.89,0003.41,0003.10
2021-08-27 16:11:00,,0826.5,5.00,0.00,29.3,28.0,00.0,38.3,31.2,23.6,0002.2,0008.49,0003.37,0003.09
2021-08-27 16:12:00,,0826.5,5.01,0.00,29.3,27.6,00.0,38.3,31.0,23.4,0001.9,0008.40,0003.35,0003.07
2021-08-27 16:13:00,,0826.5,5.00,0.00,29.2,26.5,00.0,38.3,30.7,23.2,0001.6,0008.17,0003.34,0003.06
2021-08-27 16:14:00,,0826.5,5.00,0.00,29.1,26.1,00.0,38.3,30.6,22.7,0001.6,0008.22,0003.33,0003.06
2021-08-27 16:15:00,,0826.5,5.00,0.00,29.1,26.4,00.0,38.2,30.7,23.2,0001.6,0007.73,0003.32,0003.05
2021-08-27 16:16:00,,0826.5,5.00,0.00,29.0,26.8,00.0,38.2,30.7,22.6,0001.5,0007.58,0003.30,0003.04
2021-08-27 16:17:00,,0826.5,5.00,0.00,29.1,27.3,00.0,38.2,30.9,21.1,0001.2,0007.48,0003.31,0003.03
2021-08-27 16:18:00,,0826.5,4.99,0.00,29.1,27.6,00.0,38.2,31.0,20.0,0001.8,0006.60,0003.33,0003.04
2021-08-27 16:19:00,,0826.5,5.01,0.00,29.2,27.9,00.0,38.2,31.1,21.9,0002.0,0006.71,0003.33,0003.05
2021-08-27 16:20:00,,0826.5,5.01,0.00,29.2,28.1,00.0,38.2,31.2,22.3,0001.8,0006.64,0003.33,0003.05
2021-08-27 16:21:00,,0826.5,4.99,0.00,29.3,28.3,00.0,38.2,31.2,22.2,0001.4,0006.25,0003.33,0003.04
2021-08-27 16:22:00,,0826.5,5.01,0.00,29.3,27.9,00.0,38.2,31.1,22.3,0001.8,0005.16,0003.35,0003.05
2021-08-27 16:23:00,,0826.5,5.00,0.00,29.2,26.5,00.0,38.2,30.8,23.1,0001.6,0005.31,0003.37,0003.06
2021-08-27 16:24:00,,0826.5,5.01,0.00,29.1,26.0,00.0,38.2,30.6,21.5,0001.9,0005.22,0003.38,0003.07
2021-08-27 16:25:00,,0826.5,4.98,0.00,29.1,26.4,00.0,38.2,30.7,20.8,0001.7,0005.07,0003.36,0003.04
2021-08-27 16:26:00,,0826.5,5.01,0.00,29.1,26.8,00.0,38.2,30.8,20.6,0001.3,0005.01,0003.35,0003.03
2021-08-27 16:27:00,,0826.5,5.00,0.00,29.1,27.2,00.0,38.2,30.9,21.1,0001.3,0005.00,0003.34,0003.02
2021-08-27 16:28:00,,0826.5,5.01,0.00,29.1,27.6,00.0,38.2,31.0,22.3,0001.8,0005.05,0003.34,0003.03
2021-08-27 16:29:00,,0826.5,5.00,0.00,29.2,27.9,00.0,38.2,31.1,21.7,0001.8,0005.03,0003.33,0003.03
2021-08-27 16:30:00,,0826.5,5.00,0.00,29.2,28.1,00.0,38.2,31.1,21.9,0002.1,0004.93,0003.32,0003.03
2021-08-27 16:31:00,,0826.5,4.99,0.00,29.3,28.3,00.0,38.2,31.2,21.9,0001.0,0004.96,0003.33,0003.04
2021-08-27 16:32:00,,0826.5,5.00,0.00,29.4,28.5,00.0,38.2,31.3,19.6,0001.0,0004.92,0003.32,0003.07
2021-08-27 16:33:00,,0826.5,5.00,0.00,29.4,27.5,00.0,38.3,31.0,19.8,0001.2,0005.10,0003.31,0003.07
2021-08-27 16:34:00,,0826.5,5.00,0.00,29.2,26.2,00.0,38.2,30.7,21.0,0002.2,0005.14,0003.31,0003.08
2021-08-27 16:35:00,,0826.5,5.00,0.00,29.2,26.2,00.0,38.2,30.7,21.3,0001.9,0005.13,0003.30,0003.07
2021-08-27 16:36:00,,0826.5,5.00,0.00,29.1,26.6,00.0,38.2,30.8,21.2,0001.6,0005.17,0003.31,0003.10
2021-08-27 16:37:00,,0826.5,5.01,0.00,29.1,27.0,00.0,38.2,30.9,21.1,0001.5,0005.19,0003.32,0003.11
2021-08-27 16:38:00,,0826.5,4.99,0.00,29.2,27.4,00.0,38.2,31.0,21.4,0001.5,0005.73,0003.37,0003.12
2021-08-27 16:39:00,,0826.5,5.01,0.00,29.2,27.8,00.0,38.2,31.0,21.3,0000.7,0006.99,0003.44,0003.13
2021-08-27 16:40:00,,0826.5,5.00,0.00,29.3,28.0,00.0,38.2,31.1,21.2,0000.5,0007.34,0003.50,0003.14
2021-08-27 16:41:00,,0826.5,5.00,0.00,29.3,28.3,00.0,38.2,31.2,21.1,0000.2,0007.39,0003.52,0003.14
2021-08-27 16:42:00,,0826.5,5.01,0.00,29.4,28.4,00.0,38.3,31.3,21.2,0000.2,0008.02,0003.52,0003.14
2021-08-27 16:43:00,,0826.5,4.99,0.00,29.4,27.7,00.0,38.3,31.1,21.3,0000.5,0008.11,0003.52,0003.14
2021-08-27 16:44:00,,0826.5,5.00,0.00,29.2,26.2,00.0,38.3,30.7,21.6,0000.3,0008.15,0003.54,0003.14
2021-08-27 16:45:00,,0826.6,5.01,0.00,29.1,26.0,00.0,38.3,30.6,20.8,-000.1,0008.03,0003.54,0003.15
2021-08-27 16:46:00,,0826.5,4.99,0.00,29.1,26.5,00.0,38.2,30.7,20.1,-000.0,0008.12,0003.57,0003.17
2021-08-27 16:47:00,,0826.5,5.00,0.00,29.1,26.9,00.0,38.2,30.8,20.6,0000.2,0008.12,0003.57,0003.17
2021-08-27 16:48:00,,0826.5,4.99,0.00,29.1,27.3,00.0,38.2,30.9,21.0,0000.5,0008.45,0003.57,0003.17
2021-08-27 16:49:00,,0826.5,5.00,0.00,29.2,27.7,00.0,38.2,31.0,20.8,0000.8,0008.31,0003.55,0003.18
2021-08-27 16:50:00,,0826.5,5.01,0.00,29.2,28.0,00.0,38.2,31.1,20.8,0001.3,0007.66,0003.51,0003.18
2021-08-27 16:51:00,,0826.5,4.99,0.00,29.3,28.2,00.0,38.2,31.2,21.4,0001.5,0007.50,0003.50,0003.19
2021-08-27 16:52:00,,0826.5,5.02,0.00,29.3,28.4,00.0,38.2,31.3,21.4,0001.5,0007.47,0003.50,0003.21
2021-08-27 16:53:00,,0826.6,4.99,0.00,29.4,27.8,00.0,38.3,31.1,22.2,0001.8,0006.35,0003.51,0003.22
2021-08-27 16:54:00,,0826.5,5.00,0.00,29.3,26.3,00.0,38.3,30.7,22.8,0001.5,0006.64,0003.55,0003.23
2021-08-27 16:55:00,,0826.5,5.00,0.00,29.1,26.0,00.0,38.3,30.6,23.1,0001.6,0007.53,0003.56,0003.24
2021-08-27 16:56:00,,0826.5,5.00,0.00,29.1,26.4,00.0,38.2,30.7,23.5,0001.8,0007.68,0003.57,0003.24
2021-08-27 16:57:00,,0826.5,5.02,0.00,29.1,26.9,00.0,38.2,30.8,23.5,0002.0,0007.79,0003.61,0003.25
2021-08-27 16:58:00,,0826.5,4.99,0.00,29.1,27.3,00.0,38.2,30.9,23.6,0001.7,0008.06,0003.68,0003.26
2021-08-27 16:59:00,,0826.5,5.00,0.00,29.1,27.6,00.0,38.2,31.0,23.5,0001.5,0008.01,0003.73,0003.28
